Flag for South Korea Weather past 2 weeks in Seoul, South Korea

Now
79 °F

Light rain. Mostly cloudy.


Feels Like: 82 °F
Forecast: 75 / 88 °F
Wind: 6 mph from Southwest

Location: Seoul / Kimp'O International Airport

Current Time: Jul 29, 2015 at 11:52:52 AM

Latest Report: Jul 29, 2015 at 11:00 AM


Visibility: 4 mi

Pressure: 29.71 "Hg

Humidity: 89%

Dew point: 75 °F

Location of SeoulLocation

Historic Weather in Seoul — Graph

°F

Seoul temperature yesterday

Maximum temperature yesterday: 88 °F (at 1:00 PM)
Minimum temperature yesterday: 75 °F (at 1:00 AM)
Average temperature yesterday: 81 °F

Past Weeks' High & Low Weather Summary

 TemperatureHumidityPressure
High91 °F (Jul 15, 2:00 PM)94% (Jul 15, 5:00 AM)29.89 "Hg (Jul 15, 5:00 AM)
Low64 °F (Jul 17, 3:00 AM)32% (Jul 17, 1:00 PM)29.62 "Hg (Jul 14, 11:00 AM)
Average78 °F72%29.73 "Hg
* Reported Jul 14 11:00 AM — Jul 29 11:00 AM, Seoul, Weather by CustomWeather, © 2015

Note: Actual official high and low records may vary slightly from our data, if they occured in-between our weather recording intervals... More about our weather records

Advertising

Seoul weather history for previous 24 hours

 ConditionsComfort  
Time TempWeatherWind HumidityBarometerVisibility
11:00 AM
Wed, Jul 29
79 °FLight rain. Mostly cloudy.6 mph89%29.71 "Hg4 mi
10:00 AM77 °FLight rain. Mostly cloudy.5 mph94%29.71 "Hg4 mi
9:00 AM77 °FLight rain. Fog.2 mph89%29.68 "Hg2 mi
8:00 AM79 °FThunderstorms. Fog.7 mph89%29.71 "Hg2 mi
6:00 AM79 °FFog.9 mph84%29.68 "Hg3 mi
5:00 AM79 °FLight rain. Fog.8 mph79%29.65 "Hg3 mi
4:00 AM77 °FMostly cloudy.7 mph83%29.68 "Hg4 mi
3:00 AM77 °FMostly cloudy.7 mph83%29.71 "Hg4 mi
2:00 AM77 °FMostly cloudy.8 mph83%29.71 "Hg4 mi
1:00 AM79 °FMostly cloudy.2 mph74%29.74 "Hg4 mi
12:00 AM79 °FMostly cloudy.2 mph79%29.74 "Hg4 mi
11:00 PM
Tue, Jul 28
79 °FPartly cloudy.5 mph79%29.77 "Hg4 mi
10:00 PM79 °FPartly cloudy.9 mph79%29.74 "Hg4 mi
9:00 PM81 °FPartly cloudy.7 mph79%29.74 "Hg4 mi
8:00 PM82 °FPartly cloudy.6 mph74%29.71 "Hg6 mi
7:00 PM82 °FBroken clouds.6 mph70%29.71 "HgN/A
6:00 PM84 °FBroken clouds.7 mph66%29.71 "HgN/A
5:00 PM86 °FBroken clouds.9 mph59%29.71 "HgN/A
4:00 PM86 °FPartly sunny.5 mph59%29.71 "HgN/A
3:00 PM88 °FBroken clouds.8 mph55%29.74 "HgN/A
2:00 PM86 °FBroken clouds.10 mph59%29.77 "HgN/A
1:00 PM88 °FBroken clouds.7 mph59%29.77 "Hg6 mi
12:00 PM86 °FBroken clouds.7 mph59%29.77 "Hg6 mi
11:00 AM84 °FBroken clouds.5 mph66%29.77 "Hg6 mi
Weather by CustomWeather, © 2015

See weather overviewHow to use our weather pages